When you browse on this site, cookies collect data to enhance your experience and personalize the content and advertising you see.
Visit our Privacy Policy to learn more. By continuing to use the site, you agree to this use of cookies and data.
  • En España
  • Lista de países
  • Para 7 días
  • Temperatura del agua
  • El tiempo en el mapa
  • Informadores
  • user-avatar
    Iniciar sesión

    Tiempo cada hora Guarda

    Hoy, 4 Junio, Jueves

    Tiempo Temperatura Precipitaciones Viento Presión Humedad
    00:00 +13°C° 0 mm 2 mps 683 mmHg 96%
    01:00 +13°C° 0 mm 2 mps 683 mmHg 95%
    02:00 +13°C° 0 mm 2 mps 683 mmHg 94%
    03:00 +13°C° 0 mm 2 mps 682 mmHg 93%
    04:00 +13°C° 0 mm 2 mps 682 mmHg 92%
    05:00 +13°C° 0 mm 2 mps 682 mmHg 91%
    06:00 +13°C° 0 mm 2 mps 682 mmHg 90%
    07:00 +14°C° 0 mm 2 mps 683 mmHg 82%
    08:00 +16°C° 0 mm 3 mps 683 mmHg 73%
    09:00 +17°C° 0 mm 3 mps 684 mmHg 64%
    10:00 +18°C° 0 mm 4 mps 684 mmHg 58%
    11:00 +19°C° 0 mm 4 mps 685 mmHg 51%
    12:00 +20°C° 0 mm 5 mps 685 mmHg 44%
    13:00 +21°C° 0 mm 5 mps 685 mmHg 43%
    14:00 +21°C° 0 mm 5 mps 684 mmHg 42%
    15:00 +22°C° 0 mm 5 mps 684 mmHg 41%
    16:00 +21°C° 0 mm 5 mps 684 mmHg 43%
    17:00 +20°C° 0 mm 4 mps 684 mmHg 46%
    18:00 +19°C° 0 mm 4 mps 684 mmHg 49%
    19:00 +17°C° 0 mm 3 mps 684 mmHg 58%
    20:00 +14°C° 0 mm 3 mps 684 mmHg 66%
    21:00 +13°C° 0 mm 2 mps 685 mmHg 75%
    22:00 +12°C° 0 mm 1 mps 685 mmHg 78%
    23:00 +11°C° 0 mm 1 mps 685 mmHg 81%

    Mañana, 5 Junio, Viernes

    Tiempo Temperatura Precipitaciones Viento Presión Humedad
    00:00 +11°C° 0 mm 1 mps 685 mmHg 84%
    01:00 +10°C° 0 mm 1 mps 685 mmHg 85%
    02:00 +10°C° 0 mm 1 mps 685 mmHg 86%
    03:00 +10°C° 0 mm 1 mps 684 mmHg 87%
    04:00 +10°C° 0 mm 1 mps 685 mmHg 86%
    05:00 +11°C° 0 mm 1 mps 685 mmHg 84%
    06:00 +11°C° 0 mm 1 mps 685 mmHg 83%
    07:00 +14°C° 0 mm 1 mps 685 mmHg 74%
    08:00 +16°C° 0 mm 1 mps 686 mmHg 65%
    09:00 +19°C° 0 mm 1 mps 687 mmHg 56%
    10:00 +21°C° 0 mm 1 mps 687 mmHg 50%
    11:00 +22°C° 0 mm 1 mps 687 mmHg 45%
    12:00 +24°C° 0 mm 1 mps 687 mmHg 40%
    13:00 +24°C° 0 mm 2 mps 687 mmHg 39%
    14:00 +25°C° 0 mm 2 mps 687 mmHg 39%
    15:00 +25°C° 0 mm 2 mps 687 mmHg 38%
    16:00 +24°C° 0 mm 3 mps 686 mmHg 42%
    17:00 +22°C° 0 mm 3 mps 686 mmHg 46%
    18:00 +21°C° 0 mm 3 mps 686 mmHg 50%
    19:00 +19°C° 0 mm 3 mps 685 mmHg 59%
    20:00 +16°C° 0 mm 2 mps 685 mmHg 68%
    21:00 +13°C° 0 mm 2 mps 685 mmHg 77%
    22:00 +13°C° 0 mm 2 mps 685 mmHg 80%
    23:00 +12°C° 0 mm 1 mps 685 mmHg 82%

    Pasado mañana, 6 Junio, Sábado

    Tiempo Temperatura Precipitaciones Viento Presión Humedad
    00:00 +12°C° 0 mm 1 mps 685 mmHg 85%
    01:00 +11°C° 0 mm 1 mps 685 mmHg 87%
    02:00 +11°C° 0 mm 1 mps 685 mmHg 89%
    03:00 +11°C° 0 mm 1 mps 684 mmHg 90%
    04:00 +11°C° 0 mm 1 mps 684 mmHg 90%
    05:00 +11°C° 0 mm 1 mps 684 mmHg 90%
    06:00 +11°C° 0 mm 1 mps 684 mmHg 90%
    07:00 +13°C° 0 mm 1 mps 685 mmHg 83%
    08:00 +14°C° 0 mm 1 mps 685 mmHg 76%
    09:00 +16°C° 0 mm 1 mps 686 mmHg 69%
    10:00 +18°C° 0 mm 2 mps 686 mmHg 63%
    11:00 +19°C° 0 mm 2 mps 686 mmHg 58%
    12:00 +21°C° 0 mm 3 mps 686 mmHg 53%
    13:00 +21°C° 0 mm 3 mps 686 mmHg 53%
    14:00 +21°C° 0 mm 4 mps 685 mmHg 54%
    15:00 +21°C° 0 mm 4 mps 685 mmHg 54%
    16:00 +20°C° 0 mm 4 mps 685 mmHg 58%
    17:00 +19°C° 0 mm 4 mps 684 mmHg 62%
    18:00 +18°C° 0 mm 4 mps 684 mmHg 66%
    19:00 +15°C° 0 mm 4 mps 684 mmHg 73%
    20:00 +14°C° 0 mm 3 mps 684 mmHg 80%
    21:00 +12°C° 0 mm 3 mps 684 mmHg 87%
    22:00 +12°C° 0 mm 2 mps 684 mmHg 90%
    23:00 +12°C° 0 mm 2 mps 684 mmHg 92%

    7 Junio, Domingo

    Tiempo Temperatura Precipitaciones Viento Presión Humedad
    00:00 +11°C° 0 mm 1 mps 684 mmHg 95%
    01:00 +11°C° 0 mm 1 mps 684 mmHg 95%
    02:00 +11°C° 0 mm 1 mps 684 mmHg 95%
    03:00 +10°C° 0 mm 1 mps 684 mmHg 95%
    04:00 +11°C° 0 mm 1 mps 684 mmHg 94%
    05:00 +11°C° 0 mm 1 mps 684 mmHg 93%
    06:00 +11°C° 0 mm 1 mps 684 mmHg 92%
    07:00 +12°C° 0 mm 1 mps 685 mmHg 86%
    08:00 +14°C° 0 mm 1 mps 685 mmHg 80%
    09:00 +15°C° 0 mm 1 mps 686 mmHg 74%
    10:00 +16°C° 0 mm 2 mps 686 mmHg 70%
    11:00 +18°C° 0 mm 2 mps 686 mmHg 65%
    12:00 +19°C° 0 mm 2 mps 686 mmHg 61%
    13:00 +19°C° 0 mm 2 mps 686 mmHg 58%
    14:00 +20°C° 0 mm 3 mps 686 mmHg 55%
    15:00 +21°C° 0 mm 3 mps 686 mmHg 52%
    16:00 +20°C° 0 mm 3 mps 686 mmHg 55%
    17:00 +20°C° 0 mm 4 mps 685 mmHg 57%
    18:00 +19°C° 0 mm 4 mps 685 mmHg 59%
    19:00 +17°C° 0 mm 3 mps 685 mmHg 69%
    20:00 +14°C° 0 mm 3 mps 685 mmHg 78%
    21:00 +13°C° 0 mm 2 mps 685 mmHg 88%
    22:00 +12°C° 0 mm 2 mps 685 mmHg 89%
    23:00 +10°C° 0 mm 2 mps 685 mmHg 91%

    8 Junio, Lunes

    Tiempo Temperatura Precipitaciones Viento Presión Humedad
    00:00 +11°C° 0 mm 1 mps 685 mmHg 93%
    01:00 +10°C° 0 mm 1 mps 685 mmHg 93%
    02:00 +9°C° 0 mm 2 mps 685 mmHg 92%
    03:00 +9°C° 0 mm 2 mps 685 mmHg 92%
    04:00 +9°C° 0 mm 2 mps 685 mmHg 91%
    05:00 +9°C° 0 mm 3 mps 685 mmHg 89%
    06:00 +9°C° 0 mm 3 mps 685 mmHg 87%
    07:00 +10°C° 0 mm 3 mps 686 mmHg 78%
    08:00 +12°C° 0 mm 4 mps 686 mmHg 69%
    09:00 +14°C° 0 mm 4 mps 687 mmHg 60%
    10:00 +17°C° 0 mm 4 mps 687 mmHg 54%
    11:00 +18°C° 0 mm 3 mps 687 mmHg 47%
    12:00 +20°C° 0 mm 3 mps 687 mmHg 41%
    13:00 +21°C° 0 mm 3 mps 687 mmHg 38%
    14:00 +21°C° 0 mm 3 mps 687 mmHg 34%
    15:00 +22°C° 0 mm 3 mps 687 mmHg 31%
    16:00 +22°C° 0 mm 3 mps 687 mmHg 33%
    17:00 +21°C° 0 mm 3 mps 687 mmHg 34%
    18:00 +21°C° 0 mm 3 mps 686 mmHg 36%
    19:00 +18°C° 0 mm 2 mps 686 mmHg 43%
    20:00 +16°C° 0 mm 2 mps 686 mmHg 49%
    21:00 +14°C° 0 mm 2 mps 686 mmHg 56%
    22:00 +13°C° 0 mm 2 mps 686 mmHg 57%
    23:00 +12°C° 0 mm 2 mps 686 mmHg 59%

    9 Junio, Martes

    Tiempo Temperatura Precipitaciones Viento Presión Humedad
    00:00 +12°C° 0 mm 2 mps 686 mmHg 60%
    01:00 +10°C° 0 mm 2 mps 686 mmHg 63%
    02:00 +10°C° 0 mm 3 mps 686 mmHg 67%
    03:00 +9°C° 0 mm 3 mps 686 mmHg 70%
    04:00 +9°C° 0 mm 3 mps 686 mmHg 72%
    05:00 +8°C° 0 mm 4 mps 686 mmHg 73%
    06:00 +8°C° 0 mm 4 mps 687 mmHg 75%
    07:00 +11°C° 0 mm 4 mps 687 mmHg 68%
    08:00 +13°C° 0 mm 4 mps 687 mmHg 60%
    09:00 +15°C° 0 mm 5 mps 688 mmHg 53%
    10:00 +18°C° 0 mm 4 mps 688 mmHg 48%
    11:00 +20°C° 0 mm 4 mps 689 mmHg 43%
    12:00 +22°C° 0 mm 3 mps 689 mmHg 38%
    13:00 +24°C° 0 mm 3 mps 689 mmHg 36%
    14:00 +24°C° 0 mm 3 mps 689 mmHg 34%
    15:00 +25°C° 0 mm 2 mps 688 mmHg 31%
    16:00 +25°C° 0 mm 2 mps 688 mmHg 33%
    17:00 +24°C° 0 mm 3 mps 688 mmHg 35%
    18:00 +24°C° 0 mm 3 mps 688 mmHg 36%
    19:00 +20°C° 0 mm 3 mps 688 mmHg 40%
    20:00 +18°C° 0 mm 3 mps 688 mmHg 43%
    21:00 +16°C° 0 mm 3 mps 688 mmHg 47%
    22:00 +15°C° 0 mm 2 mps 688 mmHg 51%
    23:00 +14°C° 0 mm 2 mps 688 mmHg 54%
    Mostrar más